This is the latest recevied weather packets stored in our database for station/object IR1CH-3. If no packets are shown the sender has not sent any weather packets the latest 1 day(s).
| Time | Temp. | Humidity | Pressure | Rain* | Wind** | Luminosity | Snow |
|---|---|---|---|---|---|---|---|
| 1777743675 | 16.67° C | 68% | 1020.7 hPa | - | - | - | - |
| 1777741874 | 16.67° C | 63% | 1020.8 hPa | - | - | - | - |
| 1777740074 | 17.22° C | 57% | 1021.1 hPa | - | - | - | - |
| 1777738274 | 17.22° C | 50% | 1021.3 hPa | - | - | - | - |
| 1777736473 | 17.22° C | 58% | 1021.7 hPa | - | - | - | - |
| 1777734673 | 17.22° C | 58% | 1022.1 hPa | - | - | - | - |
| 1777732873 | 17.22° C | 54% | 1022.4 hPa | - | - | - | - |
| 1777731072 | 17.22° C | 56% | 1023 hPa | - | - | - | - |
| 1777729272 | 17.22° C | 56% | 1023.4 hPa | - | - | - | - |
| 1777727472 | 17.22° C | 52% | 1023.6 hPa | - | - | - | - |
| 1777725671 | 17.78° C | 51% | 1023.9 hPa | - | - | - | - |
| 1777723871 | 17.78° C | 52% | 1024.2 hPa | - | - | - | - |
| 1777722071 | 20° C | 48% | 1024.5 hPa | - | - | - | - |
| 1777720270 | 20° C | 51% | 1024.7 hPa | - | - | - | - |
| 1777718470 | 20° C | 56% | 1025.1 hPa | - | - | - | - |
| 1777716670 | 20.56° C | 56% | 1025.3 hPa | - | - | - | - |
| 1777714870 | 18.33° C | 57% | 1025.5 hPa | - | - | - | - |
| 1777713069 | 18.33° C | 59% | 1025.7 hPa | - | - | - | - |
| 1777711269 | 18.89° C | 53% | 1025.7 hPa | - | - | - | - |
| 1777709468 | 17.78° C | 54% | 1025.9 hPa | - | - | - | - |
| 1777707668 | 16.67° C | 55% | 1026 hPa | - | - | - | - |
| 1777705868 | 16.67° C | 54% | 1025.9 hPa | - | - | - | - |
| 1777704068 | 16.67° C | 50% | 1025.8 hPa | - | - | - | - |
* Rain since midnight (hover to see other rain measurements)
** Current wind speed in m/s (hover to see current wind gust speed)